Flag for Norway Weather past 2 weeks in Arendal, Norway

Now
72 °F

Mild.


Feels Like: 73 °F
Forecast: 61 / 74 °F
Wind: 7 mph from Southwest

Location: Torungen Fyr

Current Time: Jul 29, 2014 at 3:43:16 PM

Latest Report: Jul 29, 2014 at 3:00 PM


Visibility: N/A

Pressure: 29.80 "Hg

Humidity: 78%

Dew point: 65 °F

Location of ArendalLocation

Historic Weather in Arendal — Graph

°F

Arendal temperature yesterday

Maximum temperature yesterday: 74 °F (at 3:00 PM)
Minimum temperature yesterday: 64 °F (at 6:00 AM)
Average temperature yesterday: 70 °F

Past Weeks' High & Low Weather Summary

 TemperatureHumidityPressure
High77 °F (Jul 24, 4:00 PM)95% (Jul 15, 2:00 PM)30.30 "Hg (Jul 15, 2:00 PM)
Low57 °F (Jul 19, 5:00 AM)48% (Jul 16, 12:00 PM)29.72 "Hg (Jul 14, 2:00 PM)
Average68 °F77%30.05 "Hg
* Reported Jul 14 2:00 PM — Jul 29 2:00 PM, Arendal, Weather by CustomWeather, © 2014

Note: Actual official high and low records may vary slightly from our data, if they occured in-between our weather recording intervals... More about our weather records

Advertising

Arendal weather history for previous 24 hours

 ConditionsComfort  
Time TempWeatherWind HumidityBarometerVisibility
2:00 PM
Jul 29
72 °FMild.5 mph76%29.82 "HgN/A
1:00 PM73 °FMild.5 mph74%29.83 "HgN/A
12:00 PM72 °FMild.3 mph78%29.83 "HgN/A
11:00 AM71 °FMild.3 mph78%29.83 "HgN/A
10:00 AM70 °FMild.5 mph84%29.84 "HgN/A
9:00 AM69 °FMild.6 mph86%29.84 "HgN/A
8:00 AM67 °FMild.3 mph82%29.84 "HgN/A
7:00 AM65 °FMild.3 mph84%29.83 "HgN/A
6:00 AM64 °FMild.2 mph89%29.84 "HgN/A
5:00 AM65 °FMild.3 mph92%29.85 "HgN/A
4:00 AM65 °FMild.2 mph90%29.86 "HgN/A
3:00 AM67 °FMild.2 mph88%29.87 "HgN/A
2:00 AM69 °FMild.5 mph86%29.88 "HgN/A
1:00 AM70 °FMild.5 mph85%29.88 "HgN/A
12:00 AM71 °FMild.6 mph84%29.88 "HgN/A
11:00 PM
Jul 28
71 °FMild.8 mph88%29.89 "HgN/A
10:00 PM72 °FMild.9 mph86%29.89 "HgN/A
9:00 PM72 °FMild.10 mph79%29.89 "HgN/A
8:00 PM73 °FMild.10 mph75%29.89 "HgN/A
7:00 PM73 °FMild.14 mph73%29.90 "HgN/A
6:00 PM73 °FMild.14 mph71%29.90 "HgN/A
5:00 PM73 °FMild.14 mph71%29.90 "HgN/A
4:00 PM73 °FMild.13 mph76%29.92 "HgN/A
3:00 PM74 °FMild.9 mph79%29.93 "HgN/A
Weather by CustomWeather, © 2014

See weather overviewHow to use our weather pages